�������l�o���
Date,Time,MP-1(��Sv/h),MP-2(��Sv/h),MP-3(��Sv/h),MP-4(��Sv/h),MP-5(��Sv/h),MP-6(��Sv/h),MP-7(��Sv/h),����,����(m/s),���J
2020/05/29,00:00,0.172,0.157,0.258,0.248,0.246,0.137,0.083,��,2.5,��
2020/05/29,00:10,0.172,0.158,0.259,0.246,0.245,0.136,0.082,-,CALM,��
2020/05/29,00:20,0.172,0.158,0.258,0.247,0.247,0.137,0.083,���쐼,2.0,��
2020/05/29,00:30,0.172,0.158,0.259,0.246,0.245,0.136,0.083,-,CALM,��
2020/05/29,00:40,0.172,0.158,0.259,0.246,0.248,0.136,0.083,-,CALM,��
2020/05/29,00:50,0.173,0.157,0.257,0.247,0.244,0.136,0.083,-,CALM,��
2020/05/29,01:00,0.171,0.158,0.258,0.246,0.246,0.137,0.084,���k��,1.0,��
2020/05/29,01:10,0.172,0.158,0.258,0.248,0.246,0.136,0.083,-,CALM,��
2020/05/29,01:20,0.172,0.157,0.260,0.245,0.247,0.136,0.083,-,CALM,��
2020/05/29,01:30,0.172,0.158,0.257,0.247,0.244,0.136,0.082,��,4.2,��
2020/05/29,01:40,0.171,0.157,0.260,0.247,0.248,0.137,0.083,��,4.1,��
2020/05/29,01:50,0.172,0.158,0.258,0.247,0.245,0.135,0.082,��,4.1,��
2020/05/29,02:00,0.171,0.158,0.259,0.248,0.246,0.137,0.083,��,4.7,��
2020/05/29,02:10,0.172,0.157,0.258,0.245,0.245,0.136,0.083,��,3.7,��
2020/05/29,02:20,0.172,0.158,0.258,0.248,0.247,0.137,0.083,���쐼,2.9,��
2020/05/29,02:30,0.172,0.158,0.259,0.246,0.245,0.136,0.084,���쐼,2.7,��
2020/05/29,02:40,0.171,0.157,0.258,0.247,0.247,0.136,0.084,���쐼,2.5,��
2020/05/29,02:50,0.172,0.158,0.258,0.247,0.245,0.136,0.083,���쐼,3.3,��
2020/05/29,03:00,0.173,0.157,0.257,0.246,0.246,0.136,0.083,��,3.4,��
2020/05/29,03:10,0.172,0.157,0.261,0.246,0.247,0.137,0.083,���쐼,3.4,��
2020/05/29,03:20,0.173,0.157,0.257,0.244,0.246,0.137,0.083,��,4.0,��
2020/05/29,03:30,0.172,0.158,0.259,0.248,0.247,0.136,0.082,���쐼,3.6,��
2020/05/29,03:40,0.172,0.158,0.258,0.246,0.246,0.137,0.083,���쐼,4.8,��
2020/05/29,03:50,0.172,0.159,0.258,0.246,0.247,0.135,0.082,��,4.4,��
2020/05/29,04:00,0.172,0.157,0.259,0.248,0.245,0.136,0.083,��,3.1,��
2020/05/29,04:10,0.173,0.157,0.258,0.246,0.246,0.136,0.083,���쐼,1.5,��
2020/05/29,04:20,0.172,0.157,0.259,0.247,0.245,0.136,0.083,��,2.2,��
2020/05/29,04:30,0.173,0.158,0.259,0.246,0.248,0.137,0.083,���k��,2.8,��
2020/05/29,04:40,0.171,0.157,0.258,0.247,0.246,0.137,0.082,��,4.3,��
2020/05/29,04:50,0.172,0.157,0.259,0.246,0.246,0.137,0.082,��,4.2,��
2020/05/29,05:00,0.170,0.158,0.258,0.246,0.247,0.136,0.082,��,3.9,��
2020/05/29,05:10,0.173,0.157,0.259,0.247,0.244,0.135,0.083,��,5.3,��
2020/05/29,05:20,0.171,0.157,0.258,0.246,0.249,0.136,0.082,��,5.7,��
2020/05/29,05:30,0.172,0.156,0.258,0.248,0.244,0.136,0.083,��,5.2,��
2020/05/29,05:40,0.173,0.157,0.260,0.246,0.246,0.137,0.083,��,1.9,��
2020/05/29,05:50,0.171,0.156,0.258,0.246,0.243,0.137,0.083,��,2.8,��
2020/05/29,06:00,0.173,0.158,0.260,0.247,0.245,0.136,0.081,��,3.9,��
2020/05/29,06:10,0.171,0.156,0.258,0.245,0.246,0.136,0.083,���쐼,1.1,��
2020/05/29,06:20,0.172,0.157,0.259,0.247,0.244,0.136,0.083,���쓌,0.8,��
2020/05/29,06:30,0.171,0.157,0.257,0.245,0.246,0.136,0.082,�쓌,0.6,��
2020/05/29,06:40,0.172,0.156,0.259,0.245,0.244,0.136,0.082,��쓌,0.6,��
2020/05/29,06:50,0.172,0.156,0.257,0.245,0.248,0.137,0.082,��,1.0,��
2020/05/29,07:00,0.173,0.156,0.259,0.246,0.246,0.136,0.083,���쓌,1.0,��
2020/05/29,07:10,0.171,0.156,0.256,0.246,0.246,0.137,0.082,���k��,1.5,��
2020/05/29,07:20,0.173,0.157,0.254,0.244,0.246,0.136,0.082,�k��,1.6,��
2020/05/29,07:30,0.171,0.158,0.257,0.246,0.245,0.136,0.083,�k��,2.2,��
2020/05/29,07:40,0.171,0.156,0.258,0.246,0.247,0.136,0.083,�k��,3.4,��
2020/05/29,07:50,0.171,0.156,0.255,0.244,0.245,0.137,0.082,�k�k��,4.9,��
2020/05/29,08:00,0.170,0.158,0.255,0.244,0.245,0.137,0.082,�k�k��,4.8,��
2020/05/29,08:10,0.172,0.157,0.254,0.248,0.247,0.136,0.083,�k�k��,5.2,��
2020/05/29,08:20,0.170,0.156,0.259,0.245,0.246,0.136,0.082,�k��,4.9,��
2020/05/29,08:30,0.172,0.156,0.258,0.243,0.244,0.137,0.082,�k�k��,4.1,��
2020/05/29,08:40,0.172,0.158,0.256,0.247,0.248,0.136,0.083,�k��,5.1,��
2020/05/29,08:50,0.171,0.156,0.256,0.246,0.245,0.136,0.083,�k��,3.5,��
2020/05/29,09:00,0.172,0.158,0.259,0.245,0.243,0.136,0.083,�k��,3.7,��
2020/05/29,09:10,0.171,0.158,0.260,0.244,0.246,0.136,0.083,���k��,3.1,��
2020/05/29,09:20,0.170,0.157,0.258,0.246,0.248,0.136,0.082,�k�k��,2.9,��
2020/05/29,09:30,0.172,0.156,0.257,0.247,0.244,0.136,0.082,�k��,3.2,��
2020/05/29,09:40,0.172,0.158,0.255,0.247,0.244,0.137,0.083,�k��,2.8,��
2020/05/29,09:50,0.170,0.158,0.260,0.245,0.245,0.136,0.083,�k��,2.9,��
2020/05/29,10:00,0.169,0.157,0.258,0.244,0.248,0.136,0.083,�k��,2.5,��
2020/05/29,10:10,0.172,0.157,0.258,0.246,0.246,0.135,0.082,�k��,1.8,��
2020/05/29,10:20,0.172,0.157,0.257,0.248,0.244,0.137,0.083,���k��,2.5,��
2020/05/29,10:30,0.170,0.158,0.257,0.247,0.244,0.137,0.082,��,1.6,��
2020/05/29,10:40,0.170,0.157,0.261,0.245,0.248,0.136,0.083,��,1.3,��
2020/05/29,10:50,0.172,0.157,0.260,0.245,0.247,0.136,0.082,���쓌,1.4,��
2020/05/29,11:00,0.173,0.158,0.258,0.245,0.246,0.136,0.083,��,1.3,��
2020/05/29,11:10,0.171,0.157,0.258,0.246,0.244,0.137,0.083,��,1.4,��
2020/05/29,11:20,0.169,0.156,0.256,0.249,0.245,0.137,0.082,���k��,1.4,��
2020/05/29,11:30,0.172,0.157,0.261,0.247,0.248,0.136,0.082,���쓌,2.2,��
2020/05/29,11:40,0.174,0.158,0.262,0.247,0.246,0.136,0.082,��,3.1,��
2020/05/29,11:50,0.171,0.158,0.259,0.245,0.245,0.137,0.083,���쓌,2.8,��
2020/05/29,12:00,0.170,0.157,0.258,0.247,0.244,0.137,0.083,���쓌,3.5,��
2020/05/29,12:10,0.169,0.158,0.257,0.249,0.243,0.137,0.083,���쓌,3.8,��
2020/05/29,12:20,0.171,0.159,0.257,0.248,0.248,0.136,0.083,���쓌,4.2,��
2020/05/29,12:30,0.173,0.157,0.262,0.246,0.247,0.136,0.082,�쓌,1.1,��
2020/05/29,12:40,0.172,0.157,0.262,0.246,0.247,0.137,0.082,��쓌,2.2,��
2020/05/29,12:50,0.171,0.156,0.260,0.245,0.244,0.137,0.083,��쓌,4.1,��
2020/05/29,13:00,0.170,0.158,0.259,0.249,0.244,0.137,0.083,�쓌,3.1,��
2020/05/29,13:10,0.171,0.159,0.258,0.250,0.243,0.136,0.084,��쓌,2.6,��
2020/05/29,13:20,0.172,0.158,0.260,0.247,0.246,0.137,0.083,��쓌,1.1,��
2020/05/29,13:30,0.173,0.157,0.263,0.246,0.249,0.138,0.084,�쓌,1.2,��
2020/05/29,13:40,0.173,0.157,0.261,0.246,0.247,0.137,0.083,�쓌,3.0,��
2020/05/29,13:50,0.171,0.158,0.259,0.247,0.247,0.137,0.082,�쓌,2.0,��
2020/05/29,14:00,0.170,0.158,0.259,0.249,0.243,0.136,0.083,��쓌,1.2,��
2020/05/29,14:10,0.170,0.157,0.259,0.249,0.244,0.137,0.083,��쓌,0.7,��
2020/05/29,14:20,0.173,0.158,0.263,0.247,0.245,0.137,0.083,�쓌,1.3,��
2020/05/29,14:30,0.173,0.159,0.263,0.246,0.249,0.137,0.083,-,CALM,��
2020/05/29,14:40,0.173,0.158,0.260,0.247,0.246,0.137,0.083,��쓌,0.9,��
2020/05/29,14:50,0.171,0.157,0.260,0.251,0.246,0.136,0.083,��쓌,1.1,��
2020/05/29,15:00,0.171,0.156,0.259,0.250,0.245,0.136,0.082,-,CALM,��
2020/05/29,15:10,0.171,0.159,0.260,0.247,0.243,0.136,0.083,-,CALM,��
2020/05/29,15:20,0.173,0.158,0.262,0.246,0.244,0.137,0.083,-,CALM,��
2020/05/29,15:30,0.174,0.158,0.260,0.250,0.246,0.137,0.083,-,CALM,��
2020/05/29,15:40,0.172,0.157,0.260,0.250,0.250,0.136,0.083,-,CALM,��
2020/05/29,15:50,0.171,0.160,0.262,0.247,0.249,0.137,0.083,�쓌,1.2,��
2020/05/29,16:00,0.171,0.158,0.261,0.249,0.246,0.137,0.083,��쓌,1.5,��
2020/05/29,16:10,0.170,0.159,0.260,0.250,0.246,0.137,0.083,��쓌,1.7,��
2020/05/29,16:20,0.173,0.159,0.263,0.248,0.245,0.137,0.083,��쓌,2.4,��
2020/05/29,16:30,0.174,0.159,0.261,0.251,0.244,0.137,0.083,��쓌,3.2,��
2020/05/29,16:40,0.172,0.159,0.263,0.249,0.243,0.138,0.083,��쓌,3.6,��
2020/05/29,16:50,0.170,0.159,0.263,0.248,0.247,0.137,0.083,��쓌,2.6,��
2020/05/29,17:00,0.172,0.159,0.262,0.251,0.249,0.137,0.083,��,3.8,��
2020/05/29,17:10,0.174,0.158,0.263,0.247,0.248,0.137,0.083,��쓌,3.5,��
2020/05/29,17:20,0.172,0.158,0.262,0.251,0.246,0.137,0.082,��쓌,3.2,��
2020/05/29,17:30,0.173,0.159,0.262,0.249,0.245,0.136,0.083,��,3.2,��
2020/05/29,17:40,0.173,0.158,0.263,0.249,0.248,0.138,0.083,��,4.2,��
2020/05/29,17:50,0.171,0.159,0.261,0.250,0.249,0.137,0.083,��쓌,4.4,��
2020/05/29,18:00,0.174,0.159,0.264,0.248,0.246,0.138,0.083,��,4.9,��
2020/05/29,18:10,0.172,0.158,0.261,0.250,0.248,0.138,0.084,��,5.7,��
2020/05/29,18:20,0.172,0.159,0.262,0.247,0.249,0.137,0.084,��,5.5,��
2020/05/29,18:30,0.174,0.160,0.262,0.250,0.248,0.137,0.083,��,5.0,��
2020/05/29,18:40,0.173,0.159,0.262,0.248,0.249,0.137,0.083,��,4.6,��
2020/05/29,18:50,0.174,0.158,0.262,0.251,0.247,0.136,0.083,��,4.6,��
2020/05/29,19:00,0.173,0.159,0.262,0.249,0.249,0.136,0.084,��,5.0,��
2020/05/29,19:10,0.172,0.159,0.263,0.250,0.247,0.137,0.083,��,5.7,��
2020/05/29,19:20,0.173,0.159,0.262,0.249,0.249,0.136,0.083,��쐼,5.3,��
2020/05/29,19:30,0.173,0.159,0.263,0.252,0.248,0.137,0.083,��쐼,5.8,��
2020/05/29,19:40,0.173,0.158,0.261,0.249,0.249,0.137,0.084,��쐼,5.3,��
2020/05/29,19:50,0.173,0.160,0.262,0.250,0.248,0.138,0.083,��쐼,5.3,��
2020/05/29,20:00,0.175,0.159,0.261,0.250,0.248,0.137,0.083,��쐼,5.8,��
2020/05/29,20:10,0.173,0.159,0.264,0.251,0.248,0.138,0.084,��쐼,6.4,��
2020/05/29,20:20,0.174,0.160,0.262,0.249,0.249,0.137,0.084,��쐼,4.2,��
2020/05/29,20:30,0.173,0.158,0.264,0.251,0.248,0.138,0.083,��,3.1,��
2020/05/29,20:40,0.174,0.160,0.263,0.250,0.248,0.138,0.084,���k��,2.4,��
2020/05/29,20:50,0.171,0.158,0.262,0.251,0.247,0.139,0.084,���k��,2.1,��
2020/05/29,21:00,0.174,0.159,0.263,0.250,0.248,0.137,0.083,�k��,3.7,��
2020/05/29,21:10,0.173,0.160,0.262,0.251,0.247,0.137,0.084,�k��,3.8,��
2020/05/29,21:20,0.174,0.160,0.264,0.250,0.249,0.137,0.084,�k��,4.7,��
2020/05/29,21:30,0.173,0.158,0.262,0.250,0.246,0.138,0.084,�k��,3.9,��
2020/05/29,21:40,0.174,0.160,0.263,0.250,0.247,0.138,0.083,�k��,3.5,��
2020/05/29,21:50,0.173,0.159,0.262,0.250,0.246,0.137,0.084,�k��,3.2,��
2020/05/29,22:00,0.173,0.159,0.262,0.251,0.249,0.138,0.083,�k��,2.3,��
2020/05/29,22:10,0.173,0.159,0.262,0.250,0.247,0.137,0.084,�k��,2.4,��
2020/05/29,22:20,0.172,0.159,0.261,0.250,0.248,0.138,0.083,�k��,2.0,��
2020/05/29,22:30,0.174,0.158,0.263,0.249,0.247,0.137,0.084,�k��,2.1,��
2020/05/29,22:40,0.173,0.158,0.262,0.250,0.248,0.138,0.084,��,1.3,��
2020/05/29,22:50,0.174,0.159,0.263,0.251,0.247,0.137,0.084,���k��,2.1,��
2020/05/29,23:00,0.172,0.159,0.261,0.250,0.246,0.138,0.083,���k��,3.4,��
2020/05/29,23:10,0.173,0.158,0.263,0.249,0.247,0.137,0.083,���k��,4.2,��
2020/05/29,23:20,0.173,0.158,0.264,0.251,0.247,0.138,0.083,���k��,3.6,��
2020/05/29,23:30,0.172,0.159,0.262,0.248,0.249,0.137,0.084,���k��,3.3,��
2020/05/29,23:40,0.173,0.158,0.263,0.250,0.246,0.137,0.083,���k��,2.2,��
2020/05/29,23:50,0.172,0.158,0.262,0.250,0.249,0.137,0.083,��,3.6,��
